Regional Weather Roundup
Issued by NWS Mt. Holly, NJ

Home | Current Version | Previous Version | Text Only | Print | Product List | Glossary On
Versions: 1 2 3 4 5 6 7 8 9 10 11 12 13 14 15 16 17 18 19 20 21 22 23 24 25 26 27 28 29 30 31 32 33 34 35 36 37 38 39 40 41 42 43 44 45 46 47 48 49 50
000
ASUS41 KPHI 262012
RWRPHI

REGIONAL WEATHER ROUNDUP
NATIONAL WEATHER SERVICE MOUNT HOLLY NJ
400 PM EDT FRI MAY 26 2017

NOTE:  "FAIR" INDICATES FEW OR NO CLOUDS BELOW 12,000 FEET WITH NO
SIGNIFICANT WEATHER AND/OR OBSTRUCTIONS TO VISIBILITY.

 * = STATION DOES NOT REPORT PRECIPITATION (E.G. RAIN, SNOW, ETC.)
        OR FOG.

NJZ015>026-262100-
SOUTHERN NEW JERSEY

CITY           SKY/WX    TMP DP  RH WIND       PRES   REMARKS
POMONA         NOT AVBL
WILDWOOD*      PTSUNNY   72  59  63 W16       29.72R
MILLVILLE      PTSUNNY   73  59  61 W18G26    29.69S
WRIGHTSTOWN    PTSUNNY   73  57  56 NW15      29.63R
MOUNT HOLLY    CLOUDY    73  53  49 W13G24    29.66R
TRENTON        CLOUDY    73  56  54 W13G24    29.66R

$$
NJZ001>014-262100-
NORTHERN NEW JERSEY

CITY           SKY/WX    TMP DP  RH WIND       PRES   REMARKS
SUSSEX         CLOUDY    71  53  52 W8        29.65R
ANDOVER*         N/A     72  54  53 VRB6      29.65S
MORRISTOWN     PTSUNNY   73  55  53 NW10G18   29.64R
NEWARK         PTSUNNY   76  56  49 NW12G18   29.62R
TETERBORO      CLOUDY    72  54  53 NW14G20   29.61S
CALDWELL       CLOUDY    75  54  47 NW8       29.63S
SOMERVILLE     CLOUDY    74  56  53 NW9G22    29.62R
ALLAIRE*       CLOUDY    73  57  57 W12       29.65R
TOMS RIVER*    PTSUNNY   75  57  53 W16G22    29.65S

$$
PAZ043-044-047-054-055-060>062-066>071-262100-
EASTERN PENNSYLVANIA

CITY           SKY/WX    TMP DP  RH WIND       PRES   REMARKS
PHILADELPHIA   PTSUNNY   75  54  47 W17G24    29.69R
NORTH PHILA    LGT RAIN  69  57  65 NW17G23   29.70R
BLUE BELL*     CLOUDY    63  59  88 W3        29.70R
DOYLESTOWN     PTSUNNY   73  57  57 W9G23     29.67R
QUAKERTOWN*    PTSUNNY   72  57  60 NW8G18    29.69S
PERKASIE*      MOCLDY    72  57  60 NW13G21   29.69S
POTTSTOWN      MOSUNNY   71  56  58 W15G24    29.70R
LANCASTER      CLOUDY    71  55  56 NW16      29.72R
COATESVILLE    PTSUNNY   72  55  56 W16G23    29.73R
READING        PTSUNNY   72  56  57 NW16G25   29.69R
ALLENTOWN      CLOUDY    71  54  54 W16G28    29.68R
MOUNT POCONO   CLOUDY    58  57  97 W8        29.70R
HAZLETON       CLOUDY    63  55  77 W5        29.75S
LEHIGHTON      LGT RAIN  64  54  68 NW6       29.70R
WILKES BARRE   CLOUDY    68  53  58 W9        29.69R

$$
DEZALL-MDZ008-012-015-019-020-262100-
DELAWARE AND EASTERN MARYLAND

CITY           SKY/WX    TMP DP  RH WIND       PRES   REMARKS
WILMINGTON     CLOUDY    73  56  54 W18G28    29.71R
DOVER          MOSUNNY   75  64  68 W17G30    29.70R
GEORGETOWN     CLOUDY    75  56  51 W15G22    29.75R
EASTON         PTSUNNY   77  57  50 NW16G23   29.79R
ABERDEEN       CLOUDY    72  56  57 W12G21    29.74R
PATUXENT       PTSUNNY   78  59  51 W22G32    29.77R
OCEAN CITY     MOSUNNY   76  56  49 W15G25    29.75R
WALLOPS ISLAND PTSUNNY   77  58  51 W14G22    29.76R
CAMBRIDGE      CLOUDY    73  57  56 W8G18     29.76S
SALISBURY      PTSUNNY   74  57  55 W17G24    29.75R

$$
PAZ001-021-NYZ056-072-MDZ011-DCZ001-262100-
OTHER NEARBY LOCATIONS

CITY           SKY/WX    TMP DP  RH WIND       PRES   REMARKS
HARRISBURG     PTSUNNY   71  54  54 NW22G28   29.72R
STATE COLLEGE  CLOUDY    64  52  63 W12G23    29.80R
WILLIAMSPORT   CLOUDY    70  54  56 W16G23    29.71R
BINGHAMTON     LGT RAIN  58  52  80 NW10G21   29.72R
NEW YORK CITY  CLOUDY    71  54  54 VRB7G18   29.65R
BALTIMORE      PTSUNNY   74  58  57 W17G31    29.75R
WASHINGTON DC  PTSUNNY   75  55  49 NW16G25   29.77S

$$



USA.gov is the U.S. government's official web portal to all federal, state and local government web resources and services.